NORTHEAST SUFFOLK  -  Freeze Warning Freeze Warning     Frost Advisory Frost Advisory     Special Weather Statement Special Weather Statement        NORTHWEST SUFFOLK  -  Freeze Warning Freeze Warning     Frost Advisory Frost Advisory     Special Weather Statement Special Weather Statement        SOUTHEAST SUFFOLK  -  Freeze Warning Freeze Warning     Frost Advisory Frost Advisory     Special Weather Statement Special Weather Statement        SOUTHWEST SUFFOLK  -  Freeze Warning Freeze Warning     Frost Advisory Frost Advisory     Special Weather Statement Special Weather Statement        NORTHERN NASSAU  -  Frost Advisory Frost Advisory     Special Weather Statement Special Weather Statement        SOUTHERN NASSAU  -  Frost Advisory Frost Advisory     Special Weather Statement Special Weather Statement        NORTHERN QUEENS  -  Special Weather Statement Special Weather Statement        SOUTHERN QUEENS  -  Special Weather Statement Special Weather Statement      

Active alerts

Northwest Suffolk
  Details for Northwest Suffolk Freeze Warning  +2 additional alerts
Southwest Suffolk
  Details for Southwest Suffolk Freeze Warning  +2 additional alerts
Northeast Suffolk
  Details for Northeast Suffolk Freeze Warning  +2 additional alerts
Southeast Suffolk
  Details for Southeast Suffolk Freeze Warning  +2 additional alerts
Northern Nassau
  Details for Northern Nassau Frost Advisory  +1 additional alert
Southern Nassau
  Details for Southern Nassau Frost Advisory  +1 additional alert
Northern Queens
  Details for Northern Queens Special Weather Statement
Southern Queens
  Details for Southern Queens Special Weather Statement


WXM80 ListenWXM80 Stop

You find our weather info also at:

UK Metoffice

WeatherCloud

Weather Underground

Northeastern Weather Network

AWEKAS

Citizen Weather Observer Program (CWOP)

HAMweather, WeatherForYou, PWS Weather


Weather Underground History page Text

Daily Summary for February 3, 2018 Units:  Metric    English   Both
« Previous Day
Next Day »
Daily Weekly Monthly Yearly Custom
  High: Low: Average:
Temperature: 0 °C -9.3 °C -4.4 °C
Dew Point: -7.6 °C -15.6 °C -11.9 °C
Humidity: 69 % 42 % 56 %
Wind Speed: 18.3 km/h 0 km/h 6.8 km/h
Wind Gust: 29.6 km/h - -
Wind:- - WSW
Pressure: 1022.6 hPa 1018.8 hPa -
Precipitation: 0 mm    
Historical Graphs
 
 
Tabular Data for February 3, 2018
Time Temperature Dew Point Pressure Wind Wind Speed Wind Gust Humidity Rainfall Rate (Hourly)
00:01 -8.6 °C -15.6 °C 1019.2 hPa West 10.5 km/h 24.1 km/h 57 % 0 mm
00:06 -8.7 °C -15.4 °C 1019.2 hPa West 2.9 km/h 16.7 km/h 58 % 0 mm
00:11 -8.7 °C -15.4 °C 1019.2 hPa WNW 12.2 km/h 22.2 km/h 58 % 0 mm
00:16 -8.7 °C -15.4 °C 1019.2 hPa WSW 5.6 km/h 19.3 km/h 58 % 0 mm
00:21 -8.7 °C -15.2 °C 1019.2 hPa NNW 10.8 km/h 22.2 km/h 59 % 0 mm
00:26 -8.7 °C -15.2 °C 1019.5 hPa NW 15.8 km/h 22.5 km/h 59 % 0 mm
00:31 -8.7 °C -15.2 °C 1019.2 hPa NW 4.8 km/h 14.8 km/h 59 % 0 mm
00:36 -8.7 °C -15.2 °C 1019.2 hPa NW 6.8 km/h 22.2 km/h 59 % 0 mm
00:41 -8.7 °C -14.8 °C 1019.2 hPa West 12.4 km/h 25.9 km/h 61 % 0 mm
00:46 -8.7 °C -15.1 °C 1019.2 hPa NW 11.4 km/h 20.4 km/h 60 % 0 mm
00:51 -8.7 °C -14.8 °C 1019.2 hPa NNW 11.3 km/h 20.4 km/h 61 % 0 mm
00:56 -8.6 °C -14.8 °C 1018.8 hPa WNW 12.7 km/h 20.4 km/h 61 % 0 mm
01:01 -8.6 °C -14.8 °C 1018.8 hPa WNW 15.1 km/h 27.8 km/h 61 % 0 mm
01:06 -8.6 °C -14.8 °C 1018.8 hPa WSW 9.3 km/h 25.9 km/h 61 % 0 mm
01:11 -8.6 °C -15 °C 1019.2 hPa NW 8.7 km/h 18.5 km/h 60 % 0 mm
01:16 -8.6 °C -14.8 °C 1019.2 hPa WNW 10.8 km/h 17.7 km/h 61 % 0 mm
01:21 -8.6 °C -15 °C 1019.2 hPa WNW 10.3 km/h 24.1 km/h 60 % 0 mm
01:26 -8.6 °C -14.8 °C 1019.2 hPa WNW 12.4 km/h 24.1 km/h 61 % 0 mm
01:32 -8.7 °C -14.8 °C 1019.5 hPa WNW 6 km/h 11.1 km/h 61 % 0 mm
01:37 -8.6 °C -14.6 °C 1019.2 hPa NNW 10.1 km/h 29.6 km/h 62 % 0 mm
01:42 -8.6 °C -14.4 °C 1019.2 hPa NW 8.4 km/h 14.8 km/h 63 % 0 mm
01:47 -8.6 °C -14.4 °C 1019.2 hPa NW 10.6 km/h 18.5 km/h 63 % 0 mm
01:52 -8.6 °C -14.3 °C 1019.5 hPa NW 16.1 km/h 29.6 km/h 63 % 0 mm
01:57 -8.6 °C -14.3 °C 1019.5 hPa NNW 9 km/h 20.4 km/h 63 % 0 mm
02:02 -8.6 °C -14.3 °C 1019.5 hPa West 10 km/h 29.6 km/h 63 % 0 mm
02:07 -8.6 °C -14.3 °C 1019.9 hPa NNW 11.1 km/h 18.5 km/h 63 % 0 mm
02:12 -8.6 °C -14.3 °C 1019.9 hPa NW 10.9 km/h 27.8 km/h 63 % 0 mm
02:17 -8.6 °C -14.3 °C 1019.9 hPa WNW 10.9 km/h 14.8 km/h 63 % 0 mm
02:22 -8.6 °C -14.2 °C 1019.9 hPa NW 4.8 km/h 5.6 km/h 64 % 0 mm
02:27 -8.6 °C -14.6 °C 1019.9 hPa WNW 11.1 km/h 16.7 km/h 62 % 0 mm
02:32 -8.6 °C -14.6 °C 1019.9 hPa West 18.3 km/h 27.8 km/h 62 % 0 mm
02:37 -8.6 °C -14.6 °C 1019.9 hPa WNW 6.6 km/h 14.8 km/h 62 % 0 mm
02:42 -8.6 °C -14.4 °C 1019.9 hPa NW 10.1 km/h 18.5 km/h 63 % 0 mm
02:47 -8.7 °C -14.4 °C 1020.2 hPa WNW 10.1 km/h 18.5 km/h 63 % 0 mm
02:52 -8.7 °C -14.3 °C 1020.2 hPa West 6.9 km/h 16.7 km/h 64 % 0 mm
02:57 -8.7 °C -14.3 °C 1020.2 hPa WSW 5 km/h 11.3 km/h 64 % 0 mm
03:02 -8.7 °C -14.3 °C 1020.2 hPa WNW 10.1 km/h 10.1 km/h 64 % 0 mm
03:07 -8.8 °C -14.2 °C 1020.2 hPa West 7.6 km/h 14.5 km/h 65 % 0 mm
03:13 -8.8 °C -14.2 °C 1020.2 hPa West 12.2 km/h 25.9 km/h 65 % 0 mm
03:18 -8.8 °C -14.4 °C 1020.2 hPa SW 13.4 km/h 13.4 km/h 64 % 0 mm
03:23 -8.8 °C -14.2 °C 1020.5 hPa West 8.7 km/h 22.5 km/h 65 % 0 mm
03:28 -8.8 °C -14.2 °C 1020.5 hPa WNW 9 km/h 18.5 km/h 65 % 0 mm
03:33 -8.8 °C -14.2 °C 1020.5 hPa WSW 8.2 km/h 16.7 km/h 65 % 0 mm
03:38 -8.8 °C -14.2 °C 1020.5 hPa West 4.8 km/h 18.5 km/h 65 % 0 mm
03:43 -8.8 °C -14.2 °C 1020.9 hPa WNW 8.7 km/h 14.8 km/h 65 % 0 mm
03:48 -8.8 °C -14.4 °C 1020.9 hPa NW 8.7 km/h 13 km/h 64 % 0 mm
03:53 -8.8 °C -14.4 °C 1020.5 hPa NW 10.5 km/h 16.7 km/h 64 % 0 mm
03:58 -8.8 °C -14.6 °C 1020.5 hPa NW 8 km/h 12.9 km/h 63 % 0 mm
04:03 -8.8 °C -14.4 °C 1020.5 hPa West 4.7 km/h 11.1 km/h 64 % 0 mm
04:08 -8.8 °C -14.4 °C 1020.5 hPa West 8.5 km/h 18.5 km/h 64 % 0 mm
04:14 -8.8 °C -14.6 °C 1020.5 hPa West 1.6 km/h 5.6 km/h 63 % 0 mm
04:19 -8.7 °C -14.5 °C 1020.9 hPa WNW 9.2 km/h 18.5 km/h 63 % 0 mm
04:24 -8.7 °C -14.5 °C 1020.9 hPa WSW 9.3 km/h 14.8 km/h 63 % 0 mm
04:29 -8.7 °C -14.3 °C 1020.9 hPa West 7.9 km/h 11.3 km/h 64 % 0 mm
04:34 -8.7 °C -14.5 °C 1020.9 hPa WSW 9.5 km/h 14.8 km/h 63 % 0 mm
04:39 -8.7 °C -14.7 °C 1020.9 hPa SW 8 km/h 9.3 km/h 62 % 0 mm
04:44 -8.7 °C -14.7 °C 1020.9 hPa WSW 6.6 km/h 16.7 km/h 62 % 0 mm
04:49 -8.7 °C -14.4 °C 1020.9 hPa WSW 9 km/h 16.7 km/h 63 % 0 mm
04:54 -8.7 °C -14.4 °C 1020.9 hPa WSW 3.7 km/h 11.1 km/h 63 % 0 mm
04:59 -8.6 °C -14.2 °C 1021.2 hPa WSW 2.3 km/h 11.3 km/h 64 % 0 mm
05:04 -8.6 °C -14.2 °C 1021.2 hPa WSW 11.1 km/h 18.5 km/h 64 % 0 mm
05:09 -8.6 °C -14.2 °C 1021.2 hPa SW 7.2 km/h 16.7 km/h 64 % 0 mm
05:14 -8.6 °C -14.4 °C 1020.9 hPa West 4.2 km/h 13 km/h 63 % 0 mm
05:19 -8.6 °C -14.3 °C 1021.2 hPa WNW 7.7 km/h 11.1 km/h 63 % 0 mm
05:24 -8.6 °C -14.3 °C 1021.2 hPa West 9.2 km/h 18.5 km/h 63 % 0 mm
05:29 -8.6 °C -14.2 °C 1021.2 hPa SSW 4.2 km/h 7.4 km/h 64 % 0 mm
05:34 -8.6 °C -14.2 °C 1021.2 hPa WSW 2.1 km/h 5.6 km/h 64 % 0 mm
05:40 -8.6 °C -13.9 °C 1021.2 hPa SW 5 km/h 6.4 km/h 65 % 0 mm
05:45 -8.6 °C -13.9 °C 1021.2 hPa SW 3.4 km/h 6.4 km/h 65 % 0 mm
05:50 -8.6 °C -14 °C 1021.2 hPa SSW 3.5 km/h 7.4 km/h 65 % 0 mm
05:55 -8.7 °C -14.1 °C 1021.6 hPa SW 5.8 km/h 8 km/h 65 % 0 mm
06:00 -8.7 °C -13.9 °C 1021.6 hPa SSW 1.4 km/h 5.6 km/h 66 % 0 mm
06:05 -8.7 °C -14.1 °C 1021.6 hPa SW 1.3 km/h 5.6 km/h 65 % 0 mm
06:10 -8.8 °C -14 °C 1021.6 hPa SW 3.5 km/h 7.4 km/h 66 % 0 mm
06:15 -8.8 °C -14.1 °C 1021.6 hPa SW 0.2 km/h 5.6 km/h 66 % 0 mm
06:20 -8.9 °C -14.1 °C 1021.6 hPa SW 2.6 km/h 5.6 km/h 66 % 0 mm
06:25 -8.9 °C -13.9 °C 1021.6 hPa SW 3.4 km/h 5.6 km/h 67 % 0 mm
06:30 -8.9 °C -13.9 °C 1021.6 hPa Calm     67 % 0 mm
06:35 -9 °C -14 °C 1021.6 hPa SW 0.8 km/h 3.7 km/h 67 % 0 mm
06:40 -9.1 °C -14.1 °C 1021.6 hPa SW 1.9 km/h 4.8 km/h 67 % 0 mm
06:45 -9.1 °C -14.1 °C 1021.6 hPa SW 0.8 km/h 5.6 km/h 67 % 0 mm
06:50 -9.2 °C -14.2 °C 1021.6 hPa SW 0.2 km/h   67 % 0 mm
06:55 -9.2 °C -14.1 °C 1021.9 hPa SW 0.8 km/h 5.6 km/h 68 % 0 mm
07:00 -9.3 °C -14.1 °C 1021.9 hPa SW 1.9 km/h 6.4 km/h 68 % 0 mm
07:06 -9.3 °C -14.1 °C 1021.9 hPa SW 3.2 km/h 8 km/h 68 % 0 mm
07:11 -9.3 °C -14.2 °C 1021.9 hPa SSW 1.6 km/h 6.4 km/h 68 % 0 mm
07:15 -9.3 °C -14.2 °C 1021.9 hPa SW 1.6 km/h 6.4 km/h 68 % 0 mm
07:21 -9.3 °C -14.1 °C 1021.9 hPa SW 8 km/h 16.1 km/h 68 % 0 mm
07:26 -9.2 °C -14.1 °C 1021.9 hPa SSW 4.8 km/h 11.3 km/h 68 % 0 mm
07:30 -9.1 °C -13.8 °C 1021.9 hPa SW 4.8 km/h 12.9 km/h 69 % 0 mm
07:35 -9 °C -13.8 °C 1022.2 hPa SW 9.7 km/h 14.5 km/h 68 % 0 mm
07:41 -8.8 °C -13.8 °C 1022.2 hPa SSW 8 km/h 12.9 km/h 67 % 0 mm
07:45 -8.7 °C -13.7 °C 1022.2 hPa SW 3.2 km/h 14.5 km/h 67 % 0 mm
07:51 -8.6 °C -13.6 °C 1022.2 hPa SW 4.8 km/h 9.7 km/h 67 % 0 mm
07:55 -8.3 °C -13.6 °C 1022.2 hPa SW 9.7 km/h 16.1 km/h 66 % 0 mm
08:01 -8.2 °C -13.4 °C 1022.2 hPa SSW 4.8 km/h 9.7 km/h 66 % 0 mm
08:06 -8 °C -13.2 °C 1022.2 hPa SW 8 km/h 12.9 km/h 66 % 0 mm
08:11 -7.8 °C -13.2 °C 1022.2 hPa SSW 5.3 km/h 9.7 km/h 65 % 0 mm
08:15 -7.6 °C -13.3 °C 1022.2 hPa SW 9.7 km/h 12.9 km/h 64 % 0 mm
08:20 -7.4 °C -13.2 °C 1022.2 hPa SSW 7.6 km/h 14.8 km/h 63 % 0 mm
08:25 -7.2 °C -13 °C 1022.2 hPa SW 8 km/h 12.9 km/h 63 % 0 mm
08:30 -6.9 °C -12.8 °C 1022.2 hPa SSW 1.1 km/h 6.4 km/h 63 % 0 mm
08:36 -6.7 °C -12.8 °C 1022.2 hPa SW 8 km/h 11.3 km/h 62 % 0 mm
08:40 -6.4 °C -12.6 °C 1022.2 hPa SW 4.8 km/h 11.3 km/h 62 % 0 mm
08:45 -6.2 °C -12.5 °C 1022.2 hPa South 2.4 km/h 9.3 km/h 61 % 0 mm
08:50 -5.9 °C -12.2 °C 1022.2 hPa SW 4.8 km/h 19.3 km/h 61 % 0 mm
08:55 -5.6 °C -12.1 °C 1022.2 hPa WSW 3.2 km/h 14.5 km/h 60 % 0 mm
09:00 -5.2 °C -12.2 °C 1022.2 hPa SW 11.6 km/h 20.4 km/h 58 % 0 mm
09:06 -4.9 °C -12.2 °C 1022.2 hPa WSW 11.3 km/h 22.5 km/h 57 % 0 mm
09:10 -4.7 °C -12.1 °C 1021.9 hPa WSW 14.5 km/h 22.5 km/h 56 % 0 mm
09:15 -4.4 °C -12.2 °C 1021.9 hPa WSW 12.9 km/h 19.3 km/h 55 % 0 mm
09:20 -4.3 °C -12.3 °C 1021.9 hPa WSW 9.7 km/h 20.9 km/h 54 % 0 mm
09:25 -4.3 °C -12.2 °C 1021.9 hPa WSW 9.7 km/h 24.1 km/h 54 % 0 mm
09:31 -4.2 °C -12.1 °C 1021.9 hPa WSW 8 km/h 19.3 km/h 54 % 0 mm
09:36 -4.2 °C -12.3 °C 1022.2 hPa WSW 11.3 km/h 24.1 km/h 53 % 0 mm
09:41 -4.1 °C -12.3 °C 1021.9 hPa WSW 4.8 km/h 16.1 km/h 53 % 0 mm
09:45 -4 °C -12.2 °C 1022.2 hPa West 12.9 km/h 20.9 km/h 53 % 0 mm
09:51 -3.8 °C -12 °C 1022.2 hPa WSW 9.7 km/h 20.9 km/h 53 % 0 mm
09:56 -3.6 °C -11.8 °C 1022.2 hPa WSW 9.7 km/h 19.3 km/h 53 % 0 mm
10:01 -3.5 °C -12.2 °C 1022.2 hPa NW 9.7 km/h 25.9 km/h 51 % 0 mm
10:06 -3.4 °C -11.9 °C 1022.2 hPa WNW 12.7 km/h 22.2 km/h 52 % 0 mm
10:11 -3.3 °C -12.1 °C 1022.2 hPa WSW 5.3 km/h 18.5 km/h 51 % 0 mm
10:16 -3.2 °C -11.9 °C 1022.2 hPa WSW 14.6 km/h 18.5 km/h 51 % 0 mm
10:21 -3.1 °C -11.8 °C 1022.2 hPa WSW 3.2 km/h 18.5 km/h 51 % 0 mm
10:26 -2.9 °C -11.6 °C 1022.2 hPa WNW 10.6 km/h 18.5 km/h 51 % 0 mm
10:31 -2.7 °C -11.5 °C 1022.2 hPa WSW 13.5 km/h 20.4 km/h 51 % 0 mm
10:36 -2.7 °C -11.2 °C 1022.6 hPa SW 9.2 km/h 24.1 km/h 52 % 0 mm
10:41 -2.6 °C -11.3 °C 1022.2 hPa NW 6.9 km/h 16.7 km/h 51 % 0 mm
10:46 -2.4 °C -11.4 °C 1022.2 hPa West 14.8 km/h 20.4 km/h 50 % 0 mm
10:51 -2.3 °C -11.4 °C 1022.2 hPa West 4.3 km/h 11.1 km/h 50 % 0 mm
10:56 -2.1 °C -11.2 °C 1021.9 hPa SSW 4 km/h 13 km/h 50 % 0 mm
11:01 -1.9 °C -11.3 °C 1021.9 hPa SW 9 km/h 18.5 km/h 49 % 0 mm
11:06 -1.8 °C -11.4 °C 1021.9 hPa WSW 6.9 km/h 18.5 km/h 48 % 0 mm
11:11 -1.8 °C -11.1 °C 1021.9 hPa WSW 10.1 km/h 16.7 km/h 49 % 0 mm
11:16 -1.8 °C -11.4 °C 1021.9 hPa South 8 km/h 18.5 km/h 48 % 0 mm
11:21 -1.9 °C -11.4 °C 1021.9 hPa WSW 9.7 km/h 14.8 km/h 48 % 0 mm
11:27 -1.9 °C -11.4 °C 1021.6 hPa SSW 9 km/h 19.3 km/h 48 % 0 mm
11:32 -1.9 °C -10.9 °C 1021.6 hPa West 12.6 km/h 20.4 km/h 50 % 0 mm
11:37 -1.9 °C -11.5 °C 1021.6 hPa SSW 7.1 km/h 16.7 km/h 48 % 0 mm
11:42 -2 °C -11.8 °C 1021.6 hPa SSW 9.3 km/h 22.2 km/h 47 % 0 mm
11:47 -2 °C -11.6 °C 1021.2 hPa West 5.8 km/h 9.7 km/h 48 % 0 mm
11:52 -1.9 °C -11.5 °C 1021.2 hPa WNW 1.8 km/h 5.6 km/h 48 % 0 mm
11:57 -1.9 °C -11.3 °C 1021.2 hPa WNW 5.8 km/h 14.8 km/h 49 % 0 mm
12:02 -1.9 °C -11.2 °C 1020.9 hPa West 4.2 km/h 9.3 km/h 49 % 0 mm
12:07 -1.9 °C -11.7 °C 1020.9 hPa West 13.8 km/h 18.5 km/h 47 % 0 mm
12:12 -2 °C -11.8 °C 1020.9 hPa SW 9.5 km/h 11.1 km/h 47 % 0 mm
12:17 -2 °C -11.8 °C 1020.9 hPa West 10.8 km/h 20.4 km/h 47 % 0 mm
12:22 -2 °C -11.8 °C 1020.9 hPa SW 10 km/h 16.7 km/h 47 % 0 mm
12:27 -2 °C -11.6 °C 1020.9 hPa WSW 5.3 km/h 14.8 km/h 48 % 0 mm
12:32 -2 °C -11.6 °C 1020.5 hPa WNW 7.9 km/h 20.4 km/h 48 % 0 mm
12:37 -1.9 °C -11.5 °C 1020.5 hPa SW 9 km/h 14.8 km/h 48 % 0 mm
12:42 -1.8 °C -11.2 °C 1020.5 hPa SSW 4.8 km/h 13 km/h 49 % 0 mm
12:47 -1.8 °C -11.3 °C 1020.5 hPa SW 8.7 km/h 18.5 km/h 48 % 0 mm
12:53 -1.7 °C -11.5 °C 1020.5 hPa WSW 6 km/h 11.3 km/h 47 % 0 mm
12:58 -1.5 °C -11.4 °C 1020.2 hPa SW 8 km/h 16.7 km/h 47 % 0 mm
13:03 -1.4 °C -11 °C 1020.2 hPa SW 3.1 km/h 13 km/h 48 % 0 mm
13:08 -1.3 °C -11.5 °C 1019.9 hPa West 11.6 km/h 18.5 km/h 46 % 0 mm
13:13 -1.2 °C -11.3 °C 1019.9 hPa SSW 6.3 km/h 11.3 km/h 46 % 0 mm
13:18 -0.9 °C -11.1 °C 1019.9 hPa WSW 6.6 km/h 14.8 km/h 46 % 0 mm
13:23 -0.8 °C -11.3 °C 1019.9 hPa WSW 6.4 km/h 9.7 km/h 45 % 0 mm
13:28 -0.6 °C -10.6 °C 1019.9 hPa SSW 2.4 km/h 8 km/h 47 % 0 mm
13:33 -0.4 °C -10.6 °C 1019.5 hPa SSW 9 km/h 16.7 km/h 46 % 0 mm
13:38 -0.3 °C -10.8 °C 1019.5 hPa SSW 5 km/h 13 km/h 45 % 0 mm
13:43 -0.2 °C -11 °C 1019.5 hPa WSW 6.4 km/h 16.7 km/h 44 % 0 mm
13:48 -0.2 °C -11 °C 1019.5 hPa WSW 3.4 km/h 13 km/h 44 % 0 mm
13:53 -0.2 °C -11 °C 1019.5 hPa WSW 7.6 km/h 14.5 km/h 44 % 0 mm
13:58 -0.1 °C -11.2 °C 1019.5 hPa SW 4.3 km/h 7.4 km/h 43 % 0 mm
14:03 -0.1 °C -11.2 °C 1019.5 hPa SW 9 km/h 13 km/h 43 % 0 mm
14:08 0 °C -11.4 °C 1019.5 hPa South 12.6 km/h 18.5 km/h 42 % 0 mm
14:13 -0.1 °C -11.4 °C 1019.5 hPa WSW 6.9 km/h 14.8 km/h 42 % 0 mm
14:18 -0.2 °C -11.6 °C 1019.2 hPa West 5.6 km/h 16.7 km/h 42 % 0 mm
14:23 -0.2 °C -11.3 °C 1019.2 hPa West 6.9 km/h 8 km/h 43 % 0 mm
14:28 -0.2 °C -11.3 °C 1019.2 hPa SW 7.1 km/h 12.9 km/h 43 % 0 mm
14:34 -0.2 °C -10.7 °C 1019.2 hPa SW 2.1 km/h 5.6 km/h 45 % 0 mm
14:39 -0.2 °C -11 °C 1019.2 hPa SSW 5 km/h 9.7 km/h 44 % 0 mm
14:44 -0.3 °C -11.1 °C 1019.2 hPa SW 9.7 km/h 18.5 km/h 44 % 0 mm
14:49 -0.4 °C -11.2 °C 1019.2 hPa WSW 6.4 km/h 9.3 km/h 44 % 0 mm
14:54 -0.5 °C -11 °C 1019.2 hPa SW 10.8 km/h 16.7 km/h 45 % 0 mm
14:59 -0.7 °C -11.2 °C 1019.2 hPa SSW 7.7 km/h 12.9 km/h 45 % 0 mm
15:04 -0.8 °C -11.3 °C 1019.2 hPa SSW 7.7 km/h 16.7 km/h 45 % 0 mm
15:09 -0.9 °C -10.8 °C 1019.2 hPa SSW 4.5 km/h 9.7 km/h 47 % 0 mm
15:14 -0.9 °C -11.1 °C 1019.2 hPa SW 6 km/h 14.8 km/h 46 % 0 mm
15:19 -1.1 °C -10.7 °C 1019.2 hPa South 10.1 km/h 18.5 km/h 48 % 0 mm
15:24 -1.2 °C -11.1 °C 1019.2 hPa West 5.1 km/h 11.1 km/h 47 % 0 mm
15:29 -1.2 °C -10.8 °C 1019.2 hPa SSW 8.2 km/h 18.5 km/h 48 % 0 mm
15:34 -1.2 °C -10.8 °C 1019.2 hPa SSW 6.4 km/h 13 km/h 48 % 0 mm
15:39 -1.2 °C -10.8 °C 1019.2 hPa South 10.8 km/h 14.8 km/h 48 % 0 mm
15:44 -1.2 °C -10.8 °C 1019.2 hPa WSW 6.8 km/h 16.7 km/h 48 % 0 mm
15:49 -1.2 °C -10.8 °C 1019.2 hPa SW 7.1 km/h 11.3 km/h 48 % 0 mm
15:54 -1.3 °C -10.9 °C 1019.2 hPa SSW 8.7 km/h 13 km/h 48 % 0 mm
16:00 -1.3 °C -10.9 °C 1019.2 hPa SSW 1.6 km/h 7.4 km/h 48 % 0 mm
16:05 -1.3 °C -10.9 °C 1019.2 hPa SW 7.4 km/h 11.3 km/h 48 % 0 mm
16:10 -1.3 °C -10.9 °C 1019.2 hPa SSW 8.5 km/h 16.1 km/h 48 % 0 mm
16:15 -1.3 °C -10.9 °C 1019.2 hPa SW 4.3 km/h 13 km/h 48 % 0 mm
16:20 -1.3 °C -10.9 °C 1019.2 hPa WSW 10.6 km/h 14.8 km/h 48 % 0 mm
16:25 -1.4 °C -11 °C 1019.2 hPa SW 10 km/h 17.7 km/h 48 % 0 mm
16:30 -1.4 °C -11.1 °C 1019.2 hPa WSW 8.2 km/h 13 km/h 48 % 0 mm
16:35 -1.5 °C -10.8 °C 1019.2 hPa WSW 7.7 km/h 18.5 km/h 49 % 0 mm
16:40 -1.5 °C -10.6 °C 1019.2 hPa South 5.8 km/h 9.7 km/h 50 % 0 mm
16:45 -1.6 °C -10.7 °C 1019.2 hPa South 8.4 km/h 16.7 km/h 50 % 0 mm
16:50 -1.6 °C -10.7 °C 1019.5 hPa SW 7.9 km/h 13 km/h 50 % 0 mm
16:55 -1.7 °C -10.7 °C 1019.5 hPa WSW 6.1 km/h 13 km/h 50 % 0 mm
17:00 -1.7 °C -10.8 °C 1019.5 hPa South 9.2 km/h 14.8 km/h 50 % 0 mm
17:05 -1.8 °C -10.8 °C 1019.5 hPa South 4.2 km/h 11.3 km/h 50 % 0 mm
17:10 -1.8 °C -10.9 °C 1019.5 hPa SW 7.9 km/h 14.5 km/h 50 % 0 mm
17:15 -1.9 °C -10.7 °C 1019.5 hPa South 3.1 km/h 7.4 km/h 51 % 0 mm
17:20 -1.9 °C -10.8 °C 1019.5 hPa SSW 3.1 km/h 11.1 km/h 51 % 0 mm
17:25 -1.9 °C -10.8 °C 1019.5 hPa SSW 1.9 km/h 9.3 km/h 51 % 0 mm
17:31 -2 °C -10.8 °C 1019.5 hPa SW 4.3 km/h 9.3 km/h 51 % 0 mm
17:36 -2.1 °C -10.6 °C 1019.5 hPa SSW 3.2 km/h 11.3 km/h 52 % 0 mm
17:41 -2.1 °C -10.7 °C 1019.5 hPa SSW 1.6 km/h 11.3 km/h 52 % 0 mm
17:46 -2.1 °C -10.7 °C 1019.9 hPa SW 1.6 km/h 6.4 km/h 52 % 0 mm
17:51 -2.2 °C -10.5 °C 1019.9 hPa SW 3.2 km/h 9.7 km/h 53 % 0 mm
17:56 -2.2 °C -10.5 °C 1019.9 hPa SW 1.6 km/h 6.4 km/h 53 % 0 mm
18:01 -2.3 °C -10.3 °C 1020.2 hPa SSW 1.9 km/h 5.6 km/h 54 % 0 mm
18:06 -2.3 °C -10.3 °C 1019.9 hPa SSW 3.2 km/h 9.7 km/h 54 % 0 mm
18:11 -2.3 °C -10.4 °C 1020.2 hPa SSW 4.8 km/h 8 km/h 54 % 0 mm
18:16 -2.3 °C -10.4 °C 1019.9 hPa SW 4.7 km/h 6.4 km/h 54 % 0 mm
18:21 -2.4 °C -10.4 °C 1020.2 hPa SW 3.2 km/h 8 km/h 54 % 0 mm
18:26 -2.4 °C -10.4 °C 1019.9 hPa SW 3.2 km/h 16.1 km/h 54 % 0 mm
18:31 -2.4 °C -10.4 °C 1020.2 hPa Calm   4.8 km/h 54 % 0 mm
18:36 -2.4 °C -10.5 °C 1020.2 hPa SW 4.8 km/h 8 km/h 54 % 0 mm
18:41 -2.4 °C -10.4 °C 1020.2 hPa SW 1.6 km/h 6.4 km/h 54 % 0 mm
18:46 -2.4 °C -10.4 °C 1020.2 hPa SW 3.2 km/h 11.3 km/h 54 % 0 mm
18:51 -2.4 °C -10.5 °C 1020.2 hPa Calm   4.8 km/h 54 % 0 mm
18:56 -2.4 °C -10.3 °C 1020.2 hPa SSW 3.2 km/h 6.4 km/h 55 % 0 mm
19:01 -2.4 °C -10.3 °C 1020.2 hPa SW 5.6 km/h 9.7 km/h 55 % 0 mm
19:06 -2.4 °C -10.3 °C 1020.2 hPa SSW 4.8 km/h 9.7 km/h 55 % 0 mm
19:11 -2.4 °C -10.5 °C 1020.2 hPa SSW 1.1 km/h 5.6 km/h 54 % 0 mm
19:16 -2.4 °C -10.3 °C 1020.2 hPa SSW 4.8 km/h 11.3 km/h 55 % 0 mm
19:21 -2.4 °C -10.3 °C 1020.2 hPa SW 3.2 km/h 8 km/h 55 % 0 mm
19:26 -2.4 °C -10.3 °C 1020.2 hPa SSW 3.4 km/h 11.1 km/h 55 % 0 mm
19:31 -2.4 °C -10.3 °C 1020.2 hPa SW 3.2 km/h 11.3 km/h 55 % 0 mm
19:36 -2.4 °C -10.3 °C 1020.2 hPa SW 1.6 km/h 11.3 km/h 55 % 0 mm
19:41 -2.4 °C -10.3 °C 1020.2 hPa SSW 8 km/h 19.3 km/h 55 % 0 mm
19:46 -2.4 °C -10.3 °C 1020.2 hPa SW 3.2 km/h 11.3 km/h 55 % 0 mm
19:51 -2.4 °C -10.3 °C 1020.2 hPa SSW 8 km/h 11.3 km/h 55 % 0 mm
19:56 -2.4 °C -10.2 °C 1020.2 hPa SSW 1.6 km/h 19.3 km/h 55 % 0 mm
20:01 -2.3 °C -10.2 °C 1020.2 hPa SW 3.7 km/h 5.6 km/h 55 % 0 mm
20:06 -2.3 °C -10.2 °C 1020.2 hPa SSW 6 km/h 9.3 km/h 55 % 0 mm
20:11 -2.3 °C -10.2 °C 1019.9 hPa SW 2.1 km/h 5.6 km/h 55 % 0 mm
20:16 -2.3 °C -9.9 °C 1019.9 hPa SW 1.9 km/h 5.6 km/h 56 % 0 mm
20:21 -2.3 °C -9.9 °C 1019.9 hPa SSW 6.4 km/h 9.3 km/h 56 % 0 mm
20:26 -2.3 °C -9.9 °C 1019.9 hPa SW 4.8 km/h 6.4 km/h 56 % 0 mm
20:31 -2.3 °C -9.9 °C 1019.9 hPa WSW 2.9 km/h 5.6 km/h 56 % 0 mm
20:36 -2.3 °C -9.7 °C 1019.9 hPa SSW 9.7 km/h 14.8 km/h 57 % 0 mm
20:41 -2.3 °C -9.7 °C 1019.9 hPa SSW 6 km/h 9.7 km/h 57 % 0 mm
20:46 -2.3 °C -9.7 °C 1019.9 hPa SSW 5.5 km/h 7.4 km/h 57 % 0 mm
20:51 -2.3 °C -9.7 °C 1019.9 hPa SW 2.9 km/h 6.4 km/h 57 % 0 mm
20:56 -2.3 °C -9.7 °C 1019.9 hPa SW 1.1 km/h 3.7 km/h 57 % 0 mm
21:01 -2.3 °C -9.4 °C 1019.9 hPa SW 1.6 km/h 5.6 km/h 58 % 0 mm
21:06 -2.3 °C -9.4 °C 1019.9 hPa SSW 2.7 km/h 5.6 km/h 58 % 0 mm
21:11 -2.3 °C -9.4 °C 1019.9 hPa SSW 10.5 km/h 14.8 km/h 58 % 0 mm
21:16 -2.2 °C -9.2 °C 1019.9 hPa SSW 7.2 km/h 16.7 km/h 59 % 0 mm
21:21 -2.2 °C -9.1 °C 1020.2 hPa SW 6.1 km/h 11.1 km/h 59 % 0 mm
21:26 -2.2 °C -9.1 °C 1019.9 hPa SSW 4.5 km/h 7.4 km/h 59 % 0 mm
21:32 -2.1 °C -9.1 °C 1020.2 hPa SW 4.8 km/h 11.1 km/h 59 % 0 mm
21:37 -2.1 °C -9 °C 1020.2 hPa SW 5.8 km/h 11.1 km/h 59 % 0 mm
21:42 -2.1 °C -8.8 °C 1020.2 hPa SSW 5.6 km/h 9.3 km/h 60 % 0 mm
21:47 -2.1 °C -8.8 °C 1019.9 hPa SSW 5.5 km/h 11.1 km/h 60 % 0 mm
21:52 -2.1 °C -8.8 °C 1019.9 hPa SW 4.8 km/h 13 km/h 60 % 0 mm
21:57 -2.1 °C -8.8 °C 1019.9 hPa SSW 5.1 km/h 16.7 km/h 60 % 0 mm
22:02 -2.1 °C -8.6 °C 1019.9 hPa SSW 5.1 km/h 13 km/h 61 % 0 mm
22:07 -2 °C -8.5 °C 1019.9 hPa SSW 9 km/h 14.8 km/h 61 % 0 mm
22:12 -1.9 °C -8.7 °C 1019.9 hPa WSW 5.8 km/h 8 km/h 60 % 0 mm
22:17 -1.9 °C -8.7 °C 1019.9 hPa SSW 8.4 km/h 18.5 km/h 60 % 0 mm
22:22 -1.8 °C -8.6 °C 1019.9 hPa SSW 10 km/h 16.7 km/h 60 % 0 mm
22:27 -1.8 °C -8.7 °C 1019.9 hPa SSW 6.8 km/h 11.3 km/h 59 % 0 mm
22:32 -1.7 °C -8.7 °C 1019.9 hPa SSW 12.6 km/h 18.5 km/h 59 % 0 mm
22:37 -1.7 °C -8.7 °C 1019.9 hPa South 10.1 km/h 14.8 km/h 59 % 0 mm
22:42 -1.6 °C -8.8 °C 1019.9 hPa SW 2.6 km/h 11.1 km/h 58 % 0 mm
22:47 -1.6 °C -8.8 °C 1019.9 hPa SSW 5.6 km/h 14.8 km/h 58 % 0 mm
22:52 -1.5 °C -8.7 °C 1019.5 hPa SSW 11.9 km/h 18.5 km/h 58 % 0 mm
22:57 -1.4 °C -8.7 °C 1019.9 hPa SSE 7.1 km/h 9.3 km/h 58 % 0 mm
23:02 -1.4 °C -8.4 °C 1019.9 hPa SW 11.9 km/h 18.5 km/h 59 % 0 mm
23:08 -1.4 °C -8.6 °C 1019.5 hPa SW 5.3 km/h 16.7 km/h 58 % 0 mm
23:13 -1.3 °C -8.3 °C 1019.9 hPa SSW 7.4 km/h 9.7 km/h 59 % 0 mm
23:18 -1.3 °C -8.3 °C 1019.5 hPa SSW 7.7 km/h 13 km/h 59 % 0 mm
23:23 -1.3 °C -8.3 °C 1019.5 hPa SW 6.6 km/h 11.3 km/h 59 % 0 mm
23:28 -1.3 °C -8.3 °C 1019.5 hPa SSE 7.1 km/h 11.3 km/h 59 % 0 mm
23:33 -1.2 °C -8.2 °C 1019.2 hPa SW 5.8 km/h 7.4 km/h 59 % 0 mm
23:38 -1.2 °C -8.2 °C 1019.2 hPa SSW 6.3 km/h 13 km/h 59 % 0 mm
23:43 -1.2 °C -7.9 °C 1019.2 hPa South 5 km/h 12.9 km/h 60 % 0 mm
23:48 -1.2 °C -7.9 °C 1019.2 hPa South 3.9 km/h 7.4 km/h 60 % 0 mm
23:53 -1.1 °C -7.9 °C 1019.5 hPa SSW 6.6 km/h 11.3 km/h 60 % 0 mm
23:58 -1.1 °C -7.6 °C 1019.2 hPa SW 7.6 km/h 11.1 km/h 61 % 0 mm
Crab Meadow Weather
Compliments of Weather Underground - 3 mb

Script developed by  Jim McMurry - jmcmurry@mwt.net Adapted for the template by  Wim van der Kuil - Leuven-Template.eu

Extremes: The most widespread U.S. cold wave was in February of 1899. It was so cold that the Mississippi River froze over its entire length, with ice as thick as two inches even in New Orleans.